Nuuk, Greenland

12:40 PM -02 on October 23, 2017 (GMT -0200)
Nuuk

Weather History for BGGH - February, 2013

Change the Weather History Date:

Tuesday, February 19, 2013

  Actual Average Record
Temperature  
Mean Temperature 26 °F -  
Max Temperature 28 °F 23 °F 57 °F (2005)
Min Temperature 21 °F 13 °F -5 °F (1997)
Degree Days  
Heating Degree Days 40    
Moisture  
Dew Point 13 °F    
Average Humidity 58    
Maximum Humidity 74    
Minimum Humidity 42    
Precipitation  
Precipitation 0.03 in 0.06 in - ()
Sea Level Pressure  
Sea Level Pressure 29.75 in    
Wind  
Wind Speed 18 mph ()    
Max Wind Speed 28 mph    
Max Gust Speed -    
Visibility 6.6 miles    
Events Snow    
Averages and records for this station are not official NWS values.
T = Trace of Precipitation, MM = Missing Value Source: Averaged Metar Reports

Daily Weather History Graph

Daily Weather History Graph

Search for Another Location

Airport or City:

Trip Planner

Search our weather history database for the weather conditions in past years. The results will help you decide how hot, cold, wet, or windy it might be!

Date:

Astronomy

Feb. 19, 2013 Rise Set
Actual Time 8:08 AM -03 5:14 PM -03
Civil Twilight 7:18 AM -03 6:04 PM -03
Nautical Twilight 6:22 AM -03 7:00 PM -03
Astronomical Twilight 5:27 AM -03 7:56 PM -03
Moon 10:20 AM -03 (2/19) 4:54 AM -03 (2/19)
Length of Visible Light 10h 46m
Length of Day
9h 06m
Waxing Gibbous, 66% of the Moon is Illuminated
Feb 19
Waxing Gibbous
Feb 25
Full
Mar 4
Last Quarter
Mar 11
New
Mar 19
First Quarter

Hourly Weather History & Observations

Time (-03) Temp. Windchill Dew Point Humidity Pressure Visibility Wind Dir Wind Speed Gust Speed Precip Events Conditions
12:00 AM 23 °F - 12 °F 49% 29.77 in 31 mi NE 26.5 mph - -  
12:20 AM 24.8 °F 11.5 °F 6.8 °F 46% 29.80 in 6.2 mi ENE 17.3 mph - N/A   Unknown
12:50 AM 24.8 °F 11.9 °F 6.8 °F 46% 29.77 in 6.2 mi East 16.1 mph - N/A Snow Light Snow Showers
1:20 AM 23.0 °F 9.2 °F 8.6 °F 54% 29.77 in 6.2 mi ENE 17.3 mph - N/A Snow Light Snow
1:50 AM 23.0 °F 9.6 °F 8.6 °F 54% 29.77 in 5.6 mi ENE 16.1 mph - N/A Snow Light Snow
2:20 AM 24.8 °F 11.5 °F 8.6 °F 50% 29.77 in 6.2 mi East 17.3 mph - N/A Snow Light Snow Showers
2:50 AM 23.0 °F 7.6 °F 10.4 °F 59% 29.77 in 6.2 mi ENE 21.9 mph - N/A   Unknown
3:00 AM 24 °F - 12 °F 48% 29.75 in 25 mi NNE 27.6 mph - -   Scattered Clouds
3:20 AM 23.0 °F 7.6 °F 8.6 °F 54% 29.77 in 6.2 mi ENE 21.9 mph - N/A Snow Light Snow Showers
3:50 AM 24.8 °F 10.3 °F 8.6 °F 50% 29.77 in 6.2 mi NE 20.7 mph - N/A Snow Light Snow Showers
4:20 AM 26.6 °F 13.1 °F 8.6 °F 47% 29.74 in 6.2 mi NE 19.6 mph - N/A Snow Light Snow Showers
4:50 AM 24.8 °F 10.3 °F 10.4 °F 54% 29.77 in 6.2 mi NE 20.7 mph - N/A Snow Light Snow Showers
5:20 AM 24.8 °F 10.7 °F 10.4 °F 54% 29.77 in 6.2 mi NE 19.6 mph - N/A   Unknown
5:50 AM 24.8 °F 10.0 °F 10.4 °F 54% 29.74 in 3.7 mi ENE 21.9 mph - N/A Snow Light Snow
6:00 AM 26 °F - 12 °F 42% 29.75 in 28 mi NE 25.3 mph - -   Scattered Clouds
6:50 AM 23.0 °F 6.0 °F 15.8 °F 74% 29.74 in 6.2 mi NE 27.6 mph - N/A   Partly Cloudy
7:50 AM 24.8 °F 9.6 °F 12.2 °F 59% 29.74 in 6.2 mi NE 23.0 mph - N/A   Partly Cloudy
8:50 AM 24.8 °F 9.3 °F 14.0 °F 64% 29.74 in 6.2 mi NE 24.2 mph - N/A   Partly Cloudy
9:00 AM 26 °F - 13 °F 45% 29.73 in 12 mi NNE 27.6 mph - -   Clear
9:50 AM 26.6 °F 13.1 °F 10.4 °F 51% 29.74 in 6.2 mi NE 19.6 mph - N/A   Scattered Clouds
10:50 AM 24.8 °F 10.3 °F 14.0 °F 64% 29.74 in 6.2 mi NE 20.7 mph - N/A   Scattered Clouds
11:50 AM 26.6 °F 13.1 °F 15.8 °F 64% 29.77 in 6.2 mi NE 19.6 mph - N/A   Scattered Clouds
12:00 PM 27 °F - 17 °F 56% 29.74 in 19 mi North 20.7 mph - -   Clear
12:50 PM 26.6 °F 14.7 °F 14.0 °F 59% 29.74 in 6.2 mi ENE 15.0 mph - N/A   Mostly Cloudy
1:50 PM 28.4 °F 16.2 °F 12.2 °F 51% 29.74 in 6.2 mi ENE 17.3 mph - N/A   Mostly Cloudy
2:50 PM 26.6 °F 13.1 °F 15.8 °F 64% 29.74 in 6.2 mi NE 19.6 mph - N/A   Mostly Cloudy
3:00 PM 28 °F - 15 °F 46% 29.72 in 31 mi NNE 25.3 mph - -   Clear
3:50 PM 26.6 °F 12.7 °F 15.8 °F 64% 29.74 in 6.2 mi NE 20.7 mph - N/A   Mostly Cloudy
4:50 PM 26.6 °F 13.1 °F 15.8 °F 64% 29.74 in 6.2 mi NE 19.6 mph - N/A   Mostly Cloudy
5:50 PM 24.8 °F 11.5 °F 15.8 °F 69% 29.74 in 6.2 mi NE 17.3 mph - N/A   Unknown
6:00 PM 25 °F - 17 °F 60% 29.73 in 31 mi North 20.7 mph - -  
6:20 PM 24.8 °F 11.9 °F 17.6 °F 74% 29.74 in 6.2 mi NE 16.1 mph - N/A   Partly Cloudy
6:50 PM 24.8 °F 12.4 °F 15.8 °F 69% 29.74 in 6.2 mi ENE 15.0 mph - N/A   Partly Cloudy
7:20 PM 26.6 °F 13.8 °F 15.8 °F 64% 29.74 in 6.2 mi NE 17.3 mph - N/A   Unknown
7:50 PM 26.6 °F 13.4 °F 17.6 °F 69% 29.74 in 6.2 mi NE 18.4 mph - N/A   Unknown
8:20 PM 28.4 °F 16.2 °F 12.2 °F 51% 29.74 in 6.2 mi NE 17.3 mph - N/A   Partly Cloudy
9:20 PM 26.6 °F 13.1 °F 15.8 °F 64% 29.74 in 6.2 mi NE 19.6 mph - N/A   Partly Cloudy
9:50 PM 26.6 °F 13.1 °F 14.0 °F 59% 29.74 in 6.2 mi NE 19.6 mph - N/A   Partly Cloudy
10:20 PM 24.8 °F 12.4 °F 17.6 °F 74% 29.77 in 6.2 mi NNE 15.0 mph - N/A   Partly Cloudy
10:50 PM 23.0 °F 9.6 °F 12.2 °F 63% 29.77 in 6.2 mi North 16.1 mph - N/A   Partly Cloudy
11:20 PM 23.0 °F 11.7 °F 10.4 °F 59% 29.80 in 6.2 mi NNE 11.5 mph - N/A   Partly Cloudy
11:50 PM 21.2 °F 10.9 °F 10.4 °F 63% 29.80 in 6.2 mi NNE 9.2 mph - N/A   Partly Cloudy